Location: Fond Mahaut
(18.0707°N, 63.0465°W)
Time: 22:36:51
(UTC+00:00)

Geosat - Pass Details

Date: 08 December 2019
Orbit: 763 x 766 km, 108.0° (Epoch: 18 January)

Event Time Altitude Azimuth Distance (km) Brightness Sun altitude
Exits shadow 22:38:02 14° 32° (NNE) 2,055 5.8 -14.4°
Maximum altitude 22:42:22 63° 111° (ESE) 848 4.0 -15.4°
Drops below altitude 10° 22:47:19 10° 193° (SSW) 2,293 6.9 -16.5°
Sets 22:49:37 0° 196° (SSW) 3,217 7.7 -17.0°
